| time (UTC) | temp F | wind direction | speed MPH | gust MPH | rain 1hr in | rain 24hr in | rain mn in | humidity % | barometer mb |
| 20260504220720 | 84 | 111 | 1.0 | 4.0 | 0.00 | 0.19 | 0.19 | 45 | 1004.1 |
| 20260504220217 | 84 | 128 | 4.0 | 5.0 | 0.00 | 0.19 | 0.19 | 44 | 1004.0 |
| 20260504215714 | 83 | 110 | 2.0 | 4.0 | 0.00 | 0.19 | 0.19 | 45 | 1003.9 |
| 20260504215211 | 83 | 323 | 4.0 | 6.0 | 0.00 | 0.19 | 0.19 | 45 | 1004.1 |
| 20260504214706 | 84 | 159 | 6.0 | 8.0 | 0.00 | 0.19 | 0.19 | 44 | 1004.2 |
| 20260504214203 | 83 | 141 | 5.0 | 5.0 | 0.00 | 0.19 | 0.19 | 47 | 1003.9 |
| 20260504213700 | 83 | 310 | 0.0 | 4.0 | 0.00 | 0.19 | 0.19 | 48 | 1003.9 |
| 20260504213157 | 82 | 82 | 0.0 | 4.0 | 0.00 | 0.19 | 0.19 | 47 | 1003.8 |
| 20260504212653 | 82 | 336 | 2.0 | 4.0 | 0.00 | 0.19 | 0.19 | 48 | 1004.0 |
| 20260504212150 | 82 | 16 | 2.0 | 6.0 | 0.00 | 0.19 | 0.19 | 50 | 1004.1 |
| 20260504211647 | 82 | 102 | 8.0 | 9.0 | 0.00 | 0.19 | 0.19 | 49 | 1004.4 |
| 20260504211143 | 80 | 36 | 1.0 | 3.0 | 0.00 | 0.19 | 0.19 | 55 | 1004.3 |
| 20260504210642 | 79 | 128 | 2.0 | 3.0 | 0.00 | 0.19 | 0.19 | 56 | 1004.4 |
| 20260504210137 | 78 | 46 | 1.0 | 4.0 | 0.00 | 0.19 | 0.19 | 57 | 1004.5 |
| 20260504205635 | 78 | 312 | 2.0 | 3.0 | 0.00 | 0.19 | 0.19 | 58 | 1004.6 |
| 20260504205132 | 77 | 79 | 3.0 | 4.0 | 0.00 | 0.19 | 0.19 | 58 | 1004.6 |
| 20260504204631 | 77 | 205 | 2.0 | 6.0 | 0.00 | 0.19 | 0.19 | 60 | 1004.8 |
| 20260504204129 | 75 | 2 | 3.0 | 8.0 | 0.00 | 0.19 | 0.19 | 61 | 1004.8 |
| 20260504203627 | 74 | 126 | 4.0 | 6.0 | 0.00 | 0.19 | 0.19 | 63 | 1004.9 |
| 20260504203120 | 73 | 50 | 3.0 | 13.0 | 0.00 | 0.19 | 0.19 | 64 | 1004.8 |
| 20260504202619 | 73 | 300 | 4.0 | 10.0 | 0.00 | 0.19 | 0.19 | 65 | 1005.0 |
| 20260504202117 | 71 | 349 | 2.0 | 6.0 | 0.00 | 0.19 | 0.19 | 69 | 1004.9 |
| 20260504201613 | 70 | 165 | 4.0 | 6.0 | 0.00 | 0.19 | 0.19 | 72 | 1005.0 |
| 20260504201111 | 68 | 318 | 3.0 | 12.0 | 0.00 | 0.19 | 0.19 | 73 | 1005.1 |
| 20260504200608 | 68 | 345 | 3.0 | 8.0 | 0.00 | 0.19 | 0.19 | 74 | 1005.1 |
| 20260504200104 | 69 | 132 | 3.0 | 11.0 | 0.09 | 0.19 | 0.19 | 68 | 1004.8 |
| 20260504195600 | 68 | 156 | 11.0 | 19.0 | 0.09 | 0.19 | 0.19 | 68 | 1004.2 |
| 20260504195057 | 67 | 224 | 5.0 | 13.0 | 0.00 | 0.18 | 0.18 | 75 | 1005.8 |
| 20260504194554 | 67 | 280 | 5.0 | 10.0 | 0.05 | 0.18 | 0.18 | 77 | 1006.0 |
| 20260504194049 | 67 | 355 | 3.0 | 6.0 | 0.09 | 0.18 | 0.18 | 76 | 1005.9 |
| 20260504193546 | 68 | 179 | 3.0 | 4.0 | 0.17 | 0.17 | 0.17 | 73 | 1005.8 |
| 20260504193045 | 69 | 102 | 3.0 | 7.0 | 0.09 | 0.15 | 0.15 | 70 | 1005.8 |
| 20260504192543 | 68 | 125 | 5.0 | 5.0 | 0.42 | 0.14 | 0.14 | 69 | 1006.1 |
| 20260504192040 | 68 | 64 | 8.0 | 12.0 | 0.69 | 0.13 | 0.13 | 75 | 1006.1 |
| 20260504191538 | 69 | 52 | 11.0 | 12.0 | 0.35 | 0.06 | 0.06 | 67 | 1006.4 |
| 20260504191034 | 71 | 323 | 12.0 | 22.0 | 0.00 | 0.00 | 0.00 | 61 | 1006.6 |
| 20260504190531 | 73 | 339 | 8.0 | 15.0 | 0.00 | 0.00 | 0.00 | 55 | 1006.4 |
| 20260504190026 | 74 | 329 | 11.0 | 17.0 | 0.00 | 0.00 | 0.00 | 53 | 1006.3 |
| 20260504185524 | 75 | 338 | 4.0 | 5.0 | 0.00 | 0.00 | 0.00 | 51 | 1006.1 |
| 20260504185020 | 75 | 11 | 2.0 | 4.0 | 0.00 | 0.00 | 0.00 | 49 | 1006.0 |
| 20260504184515 | 75 | 37 | 2.0 | 4.0 | 0.00 | 0.00 | 0.00 | 48 | 1006.1 |
| 20260504184011 | 76 | 342 | 2.0 | 3.0 | 0.00 | 0.00 | 0.00 | 49 | 1006.1 |
| 20260504183509 | 76 | 6 | 1.0 | 4.0 | 0.00 | 0.00 | 0.00 | 48 | 1006.4 |
| 20260504183007 | 76 | 124 | 4.0 | 5.0 | 0.00 | 0.00 | 0.00 | 47 | 1006.5 |
| 20260504182503 | 76 | 98 | 1.0 | 4.0 | 0.00 | 0.00 | 0.00 | 47 | 1006.6 |
| 20260504182000 | 77 | 192 | 5.0 | 6.0 | 0.00 | 0.00 | 0.00 | 47 | 1006.6 |
| 20260504181457 | 77 | 258 | 1.0 | 6.0 | 0.00 | 0.00 | 0.00 | 47 | 1006.6 |
| 20260504180956 | 78 | 49 | 3.0 | 5.0 | 0.00 | 0.00 | 0.00 | 48 | 1006.6 |
| 20260504180455 | 78 | 144 | 6.0 | 7.0 | 0.00 | 0.00 | 0.00 | 46 | 1006.3 |
| 20260504175953 | 78 | 141 | 4.0 | 4.0 | 0.00 | 0.00 | 0.00 | 48 | 1006.4 |
| 20260504175449 | 78 | 148 | 4.0 | 10.0 | 0.00 | 0.00 | 0.00 | 48 | 1006.5 |
| 20260504174947 | 77 | 147 | 6.0 | 8.0 | 0.00 | 0.00 | 0.00 | 49 | 1006.5 |
| 20260504174444 | 76 | 137 | 7.0 | 11.0 | 0.00 | 0.00 | 0.00 | 49 | 1006.6 |
| 20260504173942 | 75 | 97 | 3.0 | 5.0 | 0.00 | 0.00 | 0.00 | 51 | 1006.7 |
| 20260504173437 | 75 | 26 | 4.0 | 5.0 | 0.00 | 0.00 | 0.00 | 52 | 1006.7 |
| 20260504172936 | 75 | 49 | 1.0 | 4.0 | 0.00 | 0.00 | 0.00 | 53 | 1006.8 |
| 20260504172431 | 73 | 0 | 4.0 | 7.0 | 0.00 | 0.00 | 0.00 | 55 | 1006.7 |
| 20260504171928 | 72 | 89 | 3.0 | 5.0 | 0.00 | 0.00 | 0.00 | 56 | 1006.9 |
| 20260504171425 | 70 | 81 | 4.0 | 4.0 | 0.00 | 0.00 | 0.00 | 57 | 1007.0 |
| 20260504170922 | 70 | 60 | 2.0 | 4.0 | 0.00 | 0.00 | 0.00 | 57 | 1007.6 |
| 20260504170418 | 70 | 59 | 3.0 | 4.0 | 0.00 | 0.00 | 0.00 | 57 | 1007.7 |
| 20260504160337 | 69 | 48 | 2.0 | 3.0 | 0.00 | 0.00 | 0.00 | 58 | 1008.7 |
| 20260504150802 | 72 | 307 | 2.0 | 5.0 | 0.00 | 0.00 | 0.00 | 54 | 1009.2 |
| 20260504150259 | 72 | 320 | 1.0 | 4.0 | 0.00 | 0.00 | 0.00 | 54 | 1009.1 |
| 20260504141229 | 71 | 354 | 2.0 | 4.0 | 0.00 | 0.00 | 0.00 | 55 | 1008.6 |
| 20260504140725 | 70 | 9 | 3.0 | 5.0 | 0.00 | 0.00 | 0.00 | 55 | 1008.9 |
| 20260504140220 | 71 | 349 | 1.0 | 6.0 | 0.00 | 0.00 | 0.00 | 55 | 1008.9 |
| 20260504130649 | 67 | 354 | 3.0 | 5.0 | 0.00 | 0.00 | 0.00 | 61 | 1009.7 |
| 20260504130145 | 67 | 39 | 1.0 | 4.0 | 0.00 | 0.00 | 0.00 | 62 | 1009.7 |
| 20260504120110 | 60 | 19 | 2.0 | 3.0 | 0.00 | 0.00 | 0.00 | 75 | 1010.2 |
| 20260504110537 | 57 | 12 | 2.0 | 2.0 | 0.00 | 0.00 | 0.00 | 79 | 1009.9 |
| 20260504100459 | 57 | 316 | 2.0 | 2.0 | 0.00 | 0.00 | 0.00 | 79 | 1009.6 |
| 20260504081852 | 59 | 36 | 3.0 | 5.0 | 0.00 | 0.00 | 0.00 | 71 | 1009.5 |
| 20260504081349 | 60 | 340 | 2.0 | 3.0 | 0.00 | 0.00 | 0.00 | 70 | 1009.3 |
| 20260504080844 | 61 | 49 | 4.0 | 8.0 | 0.00 | 0.00 | 0.00 | 67 | 1009.6 |
| 20260504080342 | 61 | 72 | 6.0 | 9.0 | 0.00 | 0.00 | 0.00 | 67 | 1009.3 |
| 20260504070309 | 63 | 34 | 6.0 | 9.0 | 0.00 | 0.00 | 0.00 | 61 | 1009.8 |
| 20260504060230 | 65 | 145 | 2.0 | 6.0 | 0.00 | 0.00 | 0.00 | 57 | 1009.4 |
| 20260504050657 | 65 | 204 | 3.0 | 7.0 | 0.00 | 0.00 | 0.00 | 56 | 1009.3 |
| 20260504050154 | 65 | 111 | 4.0 | 13.0 | 0.00 | 0.00 | 0.00 | 56 | 1009.4 |
| 20260504045652 | 65 | 130 | 6.0 | 6.0 | 0.00 | 0.00 | 0.00 | 55 | 1009.5 |
| 20260504045152 | 66 | 38 | 4.0 | 7.0 | 0.00 | 0.00 | 0.00 | 55 | 1009.6 |
| 20260504044650 | 66 | 152 | 5.0 | 7.0 | 0.00 | 0.00 | 0.00 | 54 | 1009.8 |
| 20260504044146 | 66 | 116 | 2.0 | 9.0 | 0.00 | 0.00 | 0.00 | 54 | 1009.8 |
| 20260504043643 | 66 | 210 | 6.0 | 7.0 | 0.00 | 0.00 | 0.00 | 54 | 1010.2 |
| 20260504043141 | 66 | 45 | 2.0 | 9.0 | 0.00 | 0.00 | 0.00 | 53 | 1010.1 |
| 20260504042638 | 66 | 353 | 4.0 | 6.0 | 0.00 | 0.00 | 0.00 | 53 | 1010.2 |
| 20260504042134 | 66 | 52 | 3.0 | 6.0 | 0.00 | 0.00 | 0.00 | 53 | 1010.3 |
| 20260504041630 | 67 | 124 | 8.0 | 9.0 | 0.00 | 0.00 | 0.00 | 52 | 1010.4 |
| 20260504041126 | 67 | 113 | 2.0 | 6.0 | 0.00 | 0.00 | 0.00 | 52 | 1010.4 |
| 20260504040624 | 67 | 15 | 2.0 | 7.0 | 0.00 | 0.00 | 0.00 | 51 | 1010.5 |
| 20260504040121 | 67 | 337 | 5.0 | 7.0 | 0.00 | 0.00 | 0.00 | 51 | 1010.5 |
| 20260504035617 | 67 | 335 | 4.0 | 9.0 | 0.00 | 0.00 | 0.00 | 51 | 1010.6 |
| 20260504035114 | 67 | 8 | 3.0 | 9.0 | 0.00 | 0.00 | 0.00 | 51 | 1010.6 |
| 20260504034612 | 67 | 311 | 4.0 | 7.0 | 0.00 | 0.00 | 0.00 | 51 | 1010.7 |
| 20260504034108 | 67 | 67 | 6.0 | 7.0 | 0.00 | 0.00 | 0.00 | 51 | 1010.8 |
| 20260504033607 | 66 | 342 | 2.0 | 6.0 | 0.00 | 0.00 | 0.00 | 51 | 1010.9 |
| 20260504033103 | 66 | 322 | 2.0 | 5.0 | 0.00 | 0.00 | 0.00 | 52 | 1010.8 |
| 20260504032600 | 66 | 146 | 2.0 | 6.0 | 0.00 | 0.00 | 0.00 | 52 | 1010.8 |
| 20260504032057 | 66 | 114 | 2.0 | 4.0 | 0.00 | 0.00 | 0.00 | 53 | 1010.9 |
| 20260504031554 | 66 | 29 | 3.0 | 4.0 | 0.00 | 0.00 | 0.00 | 53 | 1010.8 |
| 20260504031050 | 67 | 74 | 2.0 | 4.0 | 0.00 | 0.00 | 0.00 | 53 | 1010.8 |
| 20260504030548 | 67 | 68 | 1.0 | 3.0 | 0.00 | 0.00 | 0.00 | 52 | 1010.8 |
| 20260504030043 | 68 | 130 | 2.0 | 9.0 | 0.00 | 0.00 | 0.00 | 50 | 1010.6 |
| 20260504025541 | 68 | 154 | 3.0 | 6.0 | 0.00 | 0.00 | 0.00 | 49 | 1010.7 |
| 20260504025038 | 68 | 160 | 2.0 | 5.0 | 0.00 | 0.00 | 0.00 | 48 | 1010.6 |
| 20260504024535 | 68 | 116 | 4.0 | 7.0 | 0.00 | 0.00 | 0.00 | 48 | 1010.7 |
| 20260504024031 | 68 | 239 | 1.0 | 6.0 | 0.00 | 0.00 | 0.00 | 48 | 1010.9 |
| 20260504023528 | 68 | 151 | 4.0 | 6.0 | 0.00 | 0.00 | 0.00 | 47 | 1010.8 |
| 20260504023024 | 68 | 163 | 1.0 | 7.0 | 0.00 | 0.00 | 0.00 | 47 | 1010.7 |
| 20260504022520 | 69 | 334 | 2.0 | 4.0 | 0.00 | 0.00 | 0.00 | 47 | 1010.6 |
| 20260504022017 | 69 | 129 | 3.0 | 4.0 | 0.00 | 0.00 | 0.00 | 47 | 1010.7 |
| 20260504021514 | 69 | 148 | 3.0 | 5.0 | 0.00 | 0.00 | 0.00 | 47 | 1010.6 |
| 20260504021011 | 69 | 143 | 5.0 | 8.0 | 0.00 | 0.00 | 0.00 | 46 | 1010.7 |
| 20260504020508 | 69 | 342 | 3.0 | 4.0 | 0.00 | 0.00 | 0.00 | 46 | 1010.4 |
| 20260504020005 | 69 | 232 | 4.0 | 6.0 | 0.00 | 0.00 | 0.00 | 46 | 1010.3 |
| 20260504015501 | 70 | 142 | 4.0 | 7.0 | 0.00 | 0.00 | 0.00 | 46 | 1010.5 |
| 20260504014956 | 70 | 44 | 3.0 | 5.0 | 0.00 | 0.00 | 0.00 | 45 | 1010.4 |
| 20260504014453 | 70 | 105 | 2.0 | 4.0 | 0.00 | 0.00 | 0.00 | 45 | 1010.2 |
| 20260504013950 | 70 | 74 | 4.0 | 6.0 | 0.00 | 0.00 | 0.00 | 44 | 1010.3 |
| 20260504013448 | 71 | 186 | 3.0 | 9.0 | 0.00 | 0.00 | 0.00 | 44 | 1010.2 |
| 20260504012944 | 71 | 165 | 2.0 | 5.0 | 0.00 | 0.00 | 0.00 | 44 | 1010.3 |
| 20260504012442 | 71 | 173 | 2.0 | 5.0 | 0.00 | 0.00 | 0.00 | 43 | 1010.1 |
| 20260504011940 | 71 | 164 | 4.0 | 6.0 | 0.00 | 0.00 | 0.00 | 42 | 1010.2 |
| 20260504011436 | 71 | 139 | 2.0 | 4.0 | 0.00 | 0.00 | 0.00 | 42 | 1010.2 |
| 20260504010932 | 72 | 118 | 2.0 | 8.0 | 0.00 | 0.00 | 0.00 | 41 | 1010.2 |
| 20260504010428 | 72 | 33 | 0.0 | 4.0 | 0.00 | 0.00 | 0.00 | 41 | 1010.2 |
| 20260504005924 | 73 | 117 | 2.0 | 4.0 | 0.00 | 0.00 | 0.00 | 41 | 1010.0 |
| 20260504005421 | 73 | 74 | 1.0 | 3.0 | 0.00 | 0.00 | 0.00 | 40 | 1010.3 |
| 20260504004919 | 74 | 145 | 0.0 | 4.0 | 0.00 | 0.00 | 0.00 | 39 | 1010.2 |
| 20260504004417 | 74 | 72 | 0.0 | 2.0 | 0.00 | 0.00 | 0.00 | 39 | 1010.1 |
| 20260504003913 | 75 | 175 | 2.0 | 3.0 | 0.00 | 0.00 | 0.00 | 38 | 1010.0 |
| 20260504003409 | 75 | 0 | 0.0 | 2.0 | 0.00 | 0.00 | 0.00 | 37 | 1010.1 |
| 20260504002906 | 76 | 132 | 1.0 | 4.0 | 0.00 | 0.00 | 0.00 | 36 | 1009.9 |
| 20260504002403 | 77 | 261 | 3.0 | 6.0 | 0.00 | 0.00 | 0.00 | 36 | 1010.0 |
| 20260504001900 | 77 | 27 | 2.0 | 4.0 | 0.00 | 0.00 | 0.00 | 35 | 1010.1 |
| 20260504001358 | 77 | 326 | 2.0 | 5.0 | 0.00 | 0.00 | 0.00 | 35 | 1010.2 |
| 20260504000854 | 77 | 141 | 2.0 | 4.0 | 0.00 | 0.00 | 0.00 | 35 | 1010.1 |
| 20260504000353 | 77 | 329 | 2.0 | 7.0 | 0.00 | 0.00 | 0.00 | 34 | 1010.0 |
| 20260503235849 | 78 | 276 | 2.0 | 7.0 | 0.00 | 0.00 | 0.00 | 34 | 1010.0 |
| 20260503235347 | 78 | 249 | 9.0 | 11.0 | 0.00 | 0.00 | 0.00 | 33 | 1010.0 |
| 20260503234844 | 78 | 230 | 2.0 | 8.0 | 0.00 | 0.00 | 0.00 | 34 | 1010.3 |
| 20260503234341 | 78 | 245 | 7.0 | 13.0 | 0.00 | 0.00 | 0.00 | 32 | 1010.2 |
| 20260503233839 | 78 | 263 | 8.0 | 9.0 | 0.00 | 0.00 | 0.00 | 32 | 1010.4 |
| 20260503233335 | 78 | 289 | 5.0 | 12.0 | 0.00 | 0.00 | 0.00 | 32 | 1010.3 |
| 20260503232831 | 79 | 269 | 6.0 | 7.0 | 0.00 | 0.00 | 0.00 | 33 | 1010.3 |
| 20260503232329 | 79 | 284 | 5.0 | 12.0 | 0.00 | 0.00 | 0.00 | 32 | 1010.3 |
| 20260503231827 | 79 | 272 | 4.0 | 9.0 | 0.00 | 0.00 | 0.00 | 32 | 1010.3 |
| 20260503231324 | 79 | 264 | 10.0 | 14.0 | 0.00 | 0.00 | 0.00 | 31 | 1010.3 |
| 20260503230819 | 79 | 157 | 2.0 | 7.0 | 0.00 | 0.00 | 0.00 | 32 | 1010.5 |
| 20260503230317 | 79 | 261 | 6.0 | 7.0 | 0.00 | 0.00 | 0.00 | 32 | 1010.4 |
| 20260503225814 | 79 | 250 | 13.0 | 19.0 | 0.00 | 0.00 | 0.00 | 30 | 1010.7 |
| 20260503225310 | 79 | 249 | 9.0 | 12.0 | 0.00 | 0.00 | 0.00 | 30 | 1010.4 |
| 20260503224807 | 79 | 262 | 6.0 | 12.0 | 0.00 | 0.00 | 0.00 | 30 | 1010.4 |
| 20260503224304 | 80 | 333 | 4.0 | 13.0 | 0.00 | 0.00 | 0.00 | 29 | 1010.7 |
| 20260503223802 | 79 | 185 | 2.0 | 8.0 | 0.00 | 0.00 | 0.00 | 30 | 1010.5 |
| 20260503223259 | 79 | 120 | 2.0 | 8.0 | 0.00 | 0.00 | 0.00 | 31 | 1010.6 |
| 20260503222755 | 79 | 281 | 6.0 | 7.0 | 0.00 | 0.00 | 0.00 | 30 | 1010.6 |
| 20260503222253 | 79 | 279 | 4.0 | 13.0 | 0.00 | 0.00 | 0.00 | 30 | 1010.7 |
| 20260503221751 | 79 | 277 | 6.0 | 8.0 | 0.00 | 0.00 | 0.00 | 31 | 1010.5 |
| 20260503221249 | 79 | 297 | 5.0 | 9.0 | 0.00 | 0.00 | 0.00 | 32 | 1010.7 |